Other Public Products
Issued by NWS Grand Forks, ND

Home | Current Version | Previous Version | Text Only | Print | Product List | Glossary Off
Versions: 1 2 3 4 5 6 7 8 9 10 11 12 13 14 15 16 17 18 19 20 21 22 23 24 25 26 27 28 29 30 31 32 33 34 35 36 37 38 39 40 41 42 43 44 45 46 47 48 49 50

000
FPUS83 KFGF 300031
OPUFGF
PRAIRIE TO PINES WEATHER ROUNDUP
NATIONAL WEATHER SERVICE EASTERN NORTH DAKOTA/GRAND FORKS ND
700 PM CDT FRI APR 29 2016

 **SATELLITE DATA USED TO AUGMENT SKY COVER AT AUTOMATED STATIONS**
 *****  WEATHER ACROSS EASTERN NORTH DAKOTA  *****

CITY           SKY/WX    TMP DP  RH WIND       PRES   REMARKS
GRAND FORKS    MOSUNNY   62  29  28 NE12      30.16R
6HR MIN TEMP:  58; 6HR MAX TEMP:  64;

GRAND FORKS AF SUNNY     61  25  25 E14       30.16R
GRAND CITY NWS NOT AVBL
BUXTON           N/A     63  31  30 NE7         N/A
DEVILS LAKE    SUNNY     59  29  31 NE15      30.17R
6HR MIN TEMP:  54; 6HR MAX TEMP:  61;

FARGO          SUNNY     64  32  30 N14       30.10S
6HR MIN TEMP:  61; 6HR MAX TEMP:  66;

WAHPETON ARPT  PTCLDY    61  30  31 S6        30.10F
$$

 *****  WEATHER ACROSS CENTRAL AND WESTERN NORTH DAKOTA  *****

CITY           SKY/WX    TMP DP  RH WIND       PRES   REMARKS
JAMESTOWN      SUNNY     60  31  33 E13       30.10F
6HR MIN TEMP:  58; 6HR MAX TEMP:  62;

BISMARCK       MOSUNNY   60  33  36 E12       30.10R
6HR MIN TEMP:  57; 6HR MAX TEMP:  62;

MINOT          SUNNY     64  20  18 E17       30.14S
6HR MIN TEMP:  60; 6HR MAX TEMP:  66;

MINOT AFB      SUNNY     61  25  26 E15G24    30.13S
6HR MIN TEMP:  57; 6HR MAX TEMP:  62;

GARRISON         N/A     59  28  30 E16       30.11F
6HR MIN TEMP:  56; 6HR MAX TEMP:  62;

WILLISTON      MOSUNNY   60  27  28 SE10      30.11F
6HR MIN TEMP:  55; 6HR MAX TEMP:  61;

DICKINSON      PTSUNNY   55  27  34 E13       30.06S
6HR MIN TEMP:  51; 6HR MAX TEMP:  57;

HETTINGER      MOSUNNY   55  29  36 E13G22    30.06F
6HR MIN TEMP:  51; 6HR MAX TEMP:  56;

$$

 *****  OTHER OBSERVATIONS NORTHEAST NORTH DAKOTA  *****

CITY           SKY/WX    TMP DP  RH WIND       PRES   REMARKS
WALHALLA       FAIR      59  28  31 NE9       30.20R
LANGDON        FAIR      59  28  31 NE14      30.19S
CAVALIER       FAIR      61  32  33 NE12      30.19R
GRAFTON        FAIR      61  32  33 NE14      30.19S
CANDO          FAIR      59  28  31 E12       30.20S
FORT TOTTEN      N/A     60  26  27 E7        29.95S
ROLLA          FAIR      57  23  26 E12       30.19S
RUGBY          FAIR      59  28  31 E18       30.16S
 ***** THE ABOVE OBSERVATIONS ARE NON NWS ARE NOT QUALITY
        CONTROLLED AND MAY MIS-REPORT RAIN FOR SNOW...
$$

 *****  OTHER OBSERVATIONS SOUTHEAST NORTH DAKOTA *****

CITY           SKY/WX    TMP DP  RH WIND       PRES   REMARKS
COOPERSTOWN    NOT AVBL
VALLEY CITY    FAIR      59  32  36 E12G20    30.12F
OAKES            N/A    N/A N/A N/A MISG        N/A
GWINNER        FAIR      61  36  39 E8        30.10S
SHEYENNE NWR     N/A     63  32  31 E6        29.95S
BUFFALO          N/A     61  26  26 E14         N/A
WYNDMERE         N/A     61  36  39 E7          N/A
 ***** THE ABOVE OBSERVATIONS ARE NON NWS ARE NOT QUALITY
       CONTROLLED AND MAY MIS-REPORT RAIN FOR SNOW...
$$

  *****  WEATHER ACROSS NORTHERN MINNESOTA  *****

CITY           SKY/WX    TMP DP  RH WIND       PRES   REMARKS
FLAG ISLAND    SUNNY     54  30  40 N12       30.20R
WARROAD        SUNNY     54  34  47 NE7       30.22R
ROSEAU         SUNNY     55  37  50 E9        30.21R
HALLOCK        SUNNY     63  25  23 E9        30.18R
THF RVR FALLS  SUNNY     59  30  33 NE13      30.18R
6HR MIN TEMP:  55; 6HR MAX TEMP:  61;

HALSTAD        NOT AVBL
FOSSTON        SUNNY     61  32  33 NE8       30.16R
BAUDETTE       SUNNY     56  31  38 N13       30.18R
6HR MIN TEMP:  54; 6HR MAX TEMP:  58;

WASKISH        SUNNY     57  32  38 NE10      30.18R
CROOKSTON      SUNNY     63  30  29 E14       30.16R
$$
  *****  WEATHER ACROSS CENTRAL AND WEST MINNESOTA  *****

CITY           SKY/WX    TMP DP  RH WIND       PRES   REMARKS
BEMIDJI        CLOUDY    57  33  40 SE5       30.14R
PARK RAPIDS    SUNNY     61  29  29 NE7       30.12R
6HR MIN TEMP:  56; 6HR MAX TEMP:  62;

WADENA         SUNNY     57  32  38 SE7       30.11S
DETROIT LAKES  SUNNY     59  30  33 E7        30.12S
MOORHEAD       MOSUNNY   63  32  31 E5        30.11R
FERGUS FALLS   PTSUNNY   61  34  36 CALM      30.08S
ELBOW LAKE     CLOUDY    57  37  47 S6        30.11S
MORRIS MN      SUNNY     57  37  47 E3        30.10S
STAPLES        SUNNY     57  28  33 E3        30.12R
WHEATON        SUNNY     59  39  47 SE5       30.12F
$$
  *****  WEATHER ELSEWHERE ACROSS MINNESOTA  *****

CITY           SKY/WX    TMP DP  RH WIND       PRES   REMARKS
DULUTH         MOSUNNY   47  28  47 E12       30.18R
6HR MIN TEMP:  47; 6HR MAX TEMP:  52;

INTRNTL FALLS  SUNNY     55  30  38 E12       30.19R
6HR MIN TEMP:  52; 6HR MAX TEMP:  57;

ELY            CLOUDY    48  30  49 NE7       30.21R
CLOQUET        SUNNY     48  27  43 E10       30.18R
BRAINERD       PTSUNNY   59  30  33 NE10      30.13R
6HR MIN TEMP:  55; 6HR MAX TEMP:  60;

HIBBING        SUNNY     53  29  39 NE9       30.16R
6HR MIN TEMP:  50; 6HR MAX TEMP:  56;

ALEXANDRIA     MOSUNNY   57  33  40 SE8       30.11F
6HR MIN TEMP:  54; 6HR MAX TEMP:  61;

SAINT CLOUD    SUNNY     58  32  37 E6        30.11S
6HR MIN TEMP:  54; 6HR MAX TEMP:  59;

MINNEAPOLIS    MOSUNNY   59  33  37 NE8       30.10S
6HR MIN TEMP:  53; 6HR MAX TEMP:  60;

$$

  *****  WEATHER ACROSS SOUTH DAKOTA  *****

CITY           SKY/WX    TMP DP  RH WIND       PRES   REMARKS
SIOUX FALLS    CLOUDY    50  38  63 E12       30.04F
6HR MIN TEMP:  46; 6HR MAX TEMP:  51;

BROOKINGS      CLOUDY    49  39  68 E6        30.07F
WATERTOWN      CLOUDY    51  38  60 E9        30.08F
6HR MIN TEMP:  51; 6HR MAX TEMP:  56;

HURON          CLOUDY    50  38  63 E9        30.07F
6HR MIN TEMP:  50; 6HR MAX TEMP:  56;

SISSETON         N/A     57  37  47 S9        30.10S
ABERDEEN       MOSUNNY   56  39  53 SE10      30.09S
6HR MIN TEMP:  56; 6HR MAX TEMP:  61;

MITCHELL       CLOUDY    50  39  66 E12       30.05F
PIERRE         PTSUNNY   50  39  66 E8        30.04F
6HR MIN TEMP:  49; 6HR MAX TEMP:  52;

MOBRIDGE       CLOUDY    58  38  47 SE10      30.04F
RAPID CITY     CLOUDY    44  35  70 E9        30.02F
6HR MIN TEMP:  41; 6HR MAX TEMP:  45;

$$

  *****  SOME WEATHER IN NEARBY STATES *****

CITY           SKY/WX    TMP DP  RH WIND       PRES   REMARKS
GLASGOW MT     CLOUDY    56  34  43 SE21      30.06R
6HR MIN TEMP:  49; 6HR MAX TEMP:  59;

GREAT FALLS MT CLOUDY    51  32  48 NE12      29.93R
6HR MIN TEMP:  47; 6HR MAX TEMP:  54;

CHEYENNE WY    LGT SNOW  32  30  92 N5        29.90F FOG
6HR MIN TEMP:  32; 6HR MAX TEMP:  34; 6HR PCP:  0.21;

SCOTTSBLUFF NE LGT RAIN  37  34  89 NE3       29.96S FOG
6HR MIN TEMP:  37; 6HR MAX TEMP:  46; 6HR PCP:  0.16;

OMAHA NE       CLOUDY    49  43  80 E9        29.96F
6HR MIN TEMP:  48; 6HR MAX TEMP:  50;

DES MOINES IA  CLOUDY    50  40  68 E13       30.03F
6HR MIN TEMP:  49; 6HR MAX TEMP:  51;

DAVENPORT IA   CLOUDY    49  42  77 NE10      30.11R
6HR MIN TEMP:  47; 6HR MAX TEMP:  53;

CHICAGO IL     CLOUDY    45  38  76 NE10      30.12R
6HR MIN TEMP:  45; 6HR MAX TEMP:  51;

EAU CLAIRE WI  SUNNY     56  38  50 S3        30.11S
6HR MIN TEMP:  53; 6HR MAX TEMP:  58;

LA CROSSE WI   CLOUDY    53  38  56 VRB5      30.13R
6HR MIN TEMP:  50; 6HR MAX TEMP:  55;

$$

  *****  SOME NATIONAL WEATHER *****

CITY           SKY/WX    TMP DP  RH WIND       PRES   REMARKS
LA GUARDIA NY  LGT RAIN  51  34  52 E6        30.09R
6HR MIN TEMP:  51; 6HR MAX TEMP:  58; 6HR PCP: TRACE;              C1F1C2F2C3F3C4F4C5F5C6F6C7F7C8F8C9F9CaFaCbFbCcFcCdFdCe!



USA.gov is the U.S. government's official web portal to all federal, state and local government web resources and services.